sat.trackr.live / text

‹ back to catalog

STARLINK-33812

NORAD 63879 · 2025-094R

PAYLOAD ACTIVE UNKNOWN

§ Identity

Operator
Country
US
Launch date
2025-05-10
Launch site
AFWTR
Launch vehicle
Mass (kg)
RCS (m²)

Purposes: comms

External: N2YO · Heavens-Above · Gunter

§ Orbital elements

Epoch: 2026-09-20T22:00:03.000096Z

Period
94.09 min
Inclination
70.0002°
Eccentricity
0.0003744
Mean motion
15.30395341 rev/d
Perigee alt
472.1 km
Apogee alt
477.2 km
Semi-major
6,852.8 km
B*
1.2726e-3
RAAN
100.0442°
Arg perigee
273.4104°
Mean anomaly
343.7612°
Rev number
557

§ Raw data

STARLINK-338121 63879U 25094R   26263.91670139  .00037575  00000+0  12726-2 0  99942 63879  70.0002 100.0442 0003744 273.4104 343.7612 15.30395341  5571

JSON: /api/v1/satellites/63879 · /tle

For live sub-satellite position, see the globe view (requires WebGL).

§ Visibility from observer

Set your observer location to see the next 7 days of passes ≥ 10°. The values pass through the URL so the page stays shareable.

No JS? Fill the form by hand. The geolocation button needs JavaScript.